Sant Hilari Sacalm-Els Cortals (La Selva)





Hora UTC 22:10
Temperatura 6.1 ºC
Humitat 62.0 %
Pressió 1006.5 hPa
Pluja 0.0 mm
Velocitat vent 0.0 km/h
Direcció vent WSW

Dades diàries 2024-02-27



Hora UTC (hivern +1h; estiu +2h)
Temperatura (ºC) Humitat (%) Pressió (hPa) Velocitat vent (km/h) Precipitació (mm)
Hora UTC Aire Humitat Pressió Vel. Dir. Vel. Max Dir. Intent. màx 5 min.
00:05 2.6 90.0 996.6 1.6 ENE 1.6 0.0
00:10 2.7 90.0 996.6 1.6 NE 12.9 0.0
00:15 2.7 90.0 996.6 3.2 WSW 12.9 0.0
00:20 2.7 90.0 996.6 1.6 SW 9.7 0.0
00:25 2.8 90.0 996.7 0.0 SSW 9.7 0.0
00:30 2.8 90.0 996.9 3.2 W 8.0 0.0
00:35 2.9 90.0 996.9 1.6 S 8.0 0.0
00:40 2.9 90.0 996.9 3.2 W 9.7 0.0
00:45 2.9 90.0 997.1 0.0 WSW 9.7 0.0
00:50 2.9 90.0 997.0 0.0 SW 6.4 0.0
00:55 2.9 90.0 997.1 6.4 SSW 6.4 0.0
01:00 2.8 90.0 997.1 6.4 SSW 6.4 0.0
01:05 2.8 90.0 997.3 3.2 SSE 8.0 0.0
01:10 2.8 90.0 997.4 6.4 E 8.0 0.0
01:15 2.8 91.0 997.4 0.0 SW 8.0 0.0
01:20 2.8 91.0 997.4 0.0 SW 6.4 0.0
01:25 2.8 91.0 997.5 1.6 SW 4.8 0.0
01:30 2.7 91.0 997.4 1.6 SW 9.7 0.0
01:35 2.7 91.0 997.6 0.0 SW 9.7 0.0
01:40 2.7 91.0 997.5 1.6 SE 6.4 0.0
01:45 2.7 91.0 997.6 1.6 SSW 6.4 0.0
01:50 2.8 91.0 997.6 0.0 SSW 3.2 0.0
01:55 2.8 91.0 997.7 1.6 SW 4.8 0.0
02:00 2.8 91.0 997.7 0.0 SSW 8.0 0.0
02:05 2.8 91.0 997.8 3.2 SW 6.4 0.0
02:10 2.8 91.0 997.7 0.0 WSW 6.4 0.0
02:15 2.8 91.0 997.7 0.0 WSW 6.4 0.0
02:20 2.7 91.0 997.8 8.0 SW 8.0 0.0
02:25 2.7 91.0 997.7 1.6 W 14.5 0.0
02:30 2.7 91.0 997.8 3.2 WSW 11.3 0.0
02:35 2.6 91.0 997.8 4.8 WSW 11.3 0.0
02:40 2.6 91.0 997.8 8.0 SW 11.3 0.0
02:45 2.6 91.0 997.8 4.8 WSW 11.3 0.0
02:50 2.6 91.0 997.8 4.8 SW 11.3 0.0
02:55 2.6 91.0 997.8 3.2 WSW 11.3 0.0
03:00 2.7 91.0 997.8 1.6 SE 12.9 0.0
03:05 2.7 91.0 997.9 3.2 SW 12.9 0.0
03:10 2.7 91.0 997.9 1.6 WSW 12.9 0.0
03:15 2.7 91.0 997.9 4.8 WSW 12.9 0.0
03:20 2.7 91.0 997.9 1.6 W 12.9 0.0
03:25 2.7 91.0 998.0 6.4 SW 16.1 0.0
03:30 2.6 91.0 997.9 6.4 NNW 16.1 0.0
03:35 2.6 91.0 998.1 3.2 SW 11.3 0.0
03:40 2.6 91.0 998.2 6.4 SW 11.3 0.0
03:45 2.6 91.0 998.1 3.2 W 11.3 0.0
03:50 2.6 91.0 998.2 6.4 W 11.3 0.0
03:55 2.6 91.0 998.3 9.7 SW 11.3 0.0
04:00 2.6 91.0 998.4 6.4 W 20.9 0.0
04:05 2.6 91.0 998.5 3.2 WSW 20.9 0.0
04:10 2.6 91.0 998.5 11.3 SSW 14.5 0.0
04:15 2.5 91.0 998.5 6.4 SW 14.5 0.0
04:20 2.4 91.0 998.6 8.0 W 14.5 0.0
04:25 2.4 90.0 998.7 9.7 SW 14.5 0.0
04:30 2.4 91.0 998.8 4.8 WSW 14.5 0.0
04:35 2.4 91.0 998.7 3.2 W 12.9 0.0
04:40 2.4 91.0 998.7 3.2 W 9.7 0.0
04:45 2.4 91.0 998.7 3.2 WNW 9.7 0.0
04:50 2.4 90.0 998.8 0.0 WNW 6.4 0.0
04:55 2.4 90.0 998.7 0.0 WNW 6.4 0.0
05:00 2.4 90.0 998.8 0.0 NNE 6.4 0.0
05:05 2.4 90.0 998.9 4.8 SW 9.7 0.0
05:10 2.4 90.0 999.0 8.0 SW 12.9 0.0
05:15 2.3 90.0 999.0 8.0 SW 12.9 0.0
05:20 2.3 90.0 999.1 3.2 SW 11.3 0.0
05:25 2.3 91.0 999.1 3.2 WSW 11.3 0.0
05:30 2.3 91.0 999.1 1.6 WSW 11.3 0.0
05:35 2.3 90.0 999.0 4.8 WSW 8.0 0.0
05:40 2.3 90.0 999.1 0.0 WSW 8.0 0.0
05:45 2.3 90.0 999.2 0.0 WSW 3.2 0.0
05:50 2.2 90.0 999.2 0.0 WSW 0.0 0.0
05:55 2.3 90.0 999.3 1.6 SW 3.2 0.0
06:00 2.3 90.0 999.4 0.0 WSW 3.2 0.0
06:05 2.3 90.0 999.4 0.0 WSW 8.0 0.0
06:10 2.3 90.0 999.6 0.0 SW 8.0 0.0
06:15 2.2 90.0 999.6 4.8 SW 4.8 0.0
06:20 2.2 90.0 999.6 0.0 SW 8.0 0.0
06:25 2.2 90.0 999.8 0.0 SW 6.4 0.0
06:30 2.1 90.0 999.7 4.8 WSW 6.4 0.0
06:35 2.1 91.0 999.8 0.0 WSW 6.4 0.0
06:40 2.0 91.0 999.9 3.2 W 11.3 0.0
06:45 2.0 90.0 999.9 3.2 W 11.3 0.0
06:50 1.9 90.0 1000.0 3.2 WSW 9.7 0.0
06:55 1.9 90.0 1000.2 3.2 WSW 8.0 0.0
07:00 1.8 90.0 1000.2 1.6 W 8.0 0.0
07:05 1.8 90.0 1000.3 0.0 W 6.4 0.0
07:10 1.8 90.0 1000.4 0.0 W 3.2 0.0
07:15 1.8 90.0 1000.4 0.0 WNW 8.0 0.0
07:20 1.8 90.0 1000.4 1.6 WNW 6.4 0.0
07:25 1.8 90.0 1000.5 0.0 NW 6.4 0.0
07:30 1.8 90.0 1000.7 0.0 WNW 3.2 0.0
07:35 1.8 90.0 1000.7 0.0 WNW 1.6 0.0
07:40 1.9 90.0 1000.8 0.0 NW 0.0 0.0
07:45 1.9 90.0 1000.9 0.0 N 0.0 0.0
07:50 2.0 90.0 1000.9 0.0 N 0.0 0.0
07:55 2.0 90.0 1000.9 0.0 N 0.0 0.0
08:00 2.1 90.0 1000.8 0.0 N 0.0 0.0
08:05 2.2 90.0 1000.9 0.0 N 0.0 0.0
08:10 2.3 90.0 1000.9 0.0 N 0.0 0.0
08:15 2.6 90.0 1001.2 0.0 NNW 0.0 0.0
08:20 2.7 90.0 1001.2 0.0 NNW 0.0 0.0
08:25 2.9 89.0 1001.5 0.0 NNW 0.0 0.0
08:30 3.1 89.0 1001.6 0.0 NNW 0.0 0.0
08:35 3.1 90.0 1001.7 0.0 NNW 0.0 0.0
08:40 3.2 90.0 1001.8 0.0 NNW 0.0 0.0
08:45 3.3 89.0 1001.9 0.0 NNW 0.0 0.0
08:50 3.4 90.0 1001.8 0.0 NNW 0.0 0.0
08:55 3.6 89.0 1001.9 0.0 NNW 0.0 0.0
09:00 3.8 89.0 1001.9 0.0 NNW 0.0 0.0
09:05 3.8 90.0 1002.0 0.0 NNW 0.0 0.0
09:10 3.9 90.0 1002.1 0.0 NNW 0.0 0.0
09:15 3.9 90.0 1002.1 0.0 N 0.0 0.0
09:20 4.0 90.0 1002.4 0.0 N 0.0 0.0
09:25 4.2 90.0 1002.6 0.0 ENE 0.0 0.0
09:30 4.5 91.0 1002.6 1.6 WSW 6.4 0.0
09:35 5.0 91.0 1002.6 3.2 S 8.0 0.0
09:40 5.4 91.0 1002.7 0.0 ESE 8.0 0.0
09:45 5.6 91.0 1002.9 0.0 ESE 3.2 0.0
09:50 5.9 90.0 1002.9 8.0 ENE 9.7 0.0
09:55 6.0 87.0 1003.0 3.2 ENE 11.3 0.0
10:00 6.4 86.0 1003.3 0.0 E 9.7 0.0
10:05 6.7 85.0 1003.1 4.8 NE 9.7 0.0
10:10 6.7 80.0 1003.3 0.0 ENE 16.1 0.0
10:15 6.8 79.0 1003.4 6.4 S 16.1 0.0
10:20 7.2 77.0 1003.4 3.2 NE 11.3 0.0
10:25 7.7 78.0 1003.6 1.6 WSW 9.7 0.0
10:30 8.0 74.0 1003.6 0.0 ESE 8.0 0.0
10:35 8.2 71.0 1003.6 4.8 ENE 8.0 0.0
10:40 8.3 69.0 1003.6 1.6 E 8.0 0.0
10:45 8.5 69.0 1003.6 3.2 S 9.7 0.0
10:50 8.7 67.0 1003.7 8.0 S 9.7 0.0
10:55 9.1 65.0 1003.9 9.7 SW 11.3 0.0
11:00 9.1 65.0 1003.7 6.4 SW 12.9 0.0
11:05 9.4 66.0 1003.7 9.7 S 11.3 0.0
11:10 9.4 63.0 1003.9 0.0 W 11.3 0.0
11:15 9.7 63.0 1003.9 0.0 W 9.7 0.0
11:20 10.1 63.0 1004.0 8.0 SSW 9.7 0.0
11:25 10.2 61.0 1004.0 9.7 SW 9.7 0.0
11:30 10.1 60.0 1004.1 3.2 S 11.3 0.0
11:35 9.9 59.0 1004.0 1.6 NE 9.7 0.0
11:40 10.1 59.0 1004.1 0.0 WSW 9.7 0.0
11:45 10.2 59.0 1003.9 1.6 NNW 9.7 0.0
11:50 10.2 60.0 1004.1 1.6 ESE 9.7 0.0
11:55 10.1 60.0 1004.1 6.4 S 11.3 0.0
12:00 10.3 61.0 1004.2 6.4 ENE 14.5 0.0
12:05 10.2 55.0 1004.0 0.0 E 11.3 0.0
12:10 10.3 55.0 1004.1 4.8 ENE 14.5 0.0
12:15 10.1 56.0 1004.1 4.8 ENE 14.5 0.0
12:20 10.2 57.0 1004.0 8.0 SW 12.9 0.0
12:25 10.5 55.0 1003.9 8.0 E 19.3 0.0
12:30 10.4 54.0 1004.0 3.2 NE 19.3 0.0
12:35 10.5 55.0 1004.0 8.0 W 16.1 0.0
12:40 10.7 56.0 1004.0 6.4 SSW 17.7 0.0
12:45 10.7 56.0 1004.0 4.8 SW 17.7 0.0
12:50 10.7 57.0 1004.1 14.5 NE 19.3 0.0
12:55 10.4 57.0 1003.9 9.7 ENE 19.3 0.0
13:00 10.4 59.0 1003.9 9.7 ENE 14.5 0.0
13:05 10.4 57.0 1003.9 6.4 ENE 17.7 0.0
13:10 10.6 58.0 1003.9 6.4 SSW 17.7 0.0
13:15 10.8 57.0 1003.9 3.2 SE 11.3 0.0
13:20 11.0 57.0 1003.9 9.7 NE 11.3 0.0
13:25 10.9 57.0 1003.9 1.6 E 11.3 0.0
13:30 10.9 54.0 1004.0 3.2 WSW 16.1 0.0
13:35 10.7 55.0 1003.9 1.6 SE 16.1 0.0
13:40 10.8 57.0 1003.9 8.0 SW 12.9 0.0
13:45 11.1 57.0 1003.8 8.0 W 12.9 0.0
13:50 11.3 54.0 1003.8 9.7 WSW 14.5 0.0
13:55 11.0 55.0 1004.0 0.0 SSW 14.5 0.0
14:00 10.8 57.0 1003.9 3.2 WSW 12.9 0.0
14:05 10.9 56.0 1004.0 6.4 SW 12.9 0.0
14:10 11.0 55.0 1003.9 0.0 SE 8.0 0.0
14:15 11.1 56.0 1004.0 1.6 WSW 8.0 0.0
14:20 11.3 56.0 1004.0 6.4 SW 9.7 0.0
14:25 11.5 55.0 1003.9 6.4 WSW 11.3 0.0
14:30 11.6 53.0 1004.0 0.0 SW 11.3 0.0
14:35 11.7 53.0 1004.0 8.0 NE 11.3 0.0
14:40 11.3 53.0 1004.1 0.0 ENE 14.5 0.0
14:45 11.3 53.0 1004.1 6.4 SW 14.5 0.0
14:50 11.3 55.0 1004.1 3.2 WSW 11.3 0.0
14:55 10.9 52.0 1004.1 1.6 E 9.7 0.0
15:00 10.7 54.0 1004.2 0.0 SSW 9.7 0.0
15:05 10.8 54.0 1004.2 4.8 SW 8.0 0.0
15:10 10.9 54.0 1004.2 4.8 WNW 8.0 0.0
15:15 10.9 55.0 1004.2 3.2 SW 8.0 0.0
15:20 11.0 55.0 1004.3 6.4 WSW 11.3 0.0
15:25 10.9 54.0 1004.5 1.6 S 11.3 0.0
15:30 10.7 53.0 1004.3 3.2 SSE 8.0 0.0
15:35 10.6 53.0 1004.3 8.0 ENE 8.0 0.0
15:40 10.4 54.0 1004.3 0.0 ESE 8.0 0.0
15:45 10.4 54.0 1004.4 8.0 S 8.0 0.0
15:50 10.6 53.0 1004.5 0.0 SW 8.0 0.0
15:55 10.8 53.0 1004.5 1.6 SSW 8.0 0.0
16:00 10.7 53.0 1004.7 6.4 ESE 12.9 0.0
16:05 10.4 54.0 1004.6 3.2 SW 12.9 0.0
16:10 10.3 52.0 1004.6 1.6 ESE 11.3 0.0
16:15 10.1 52.0 1004.6 6.4 WSW 17.7 0.0
16:20 9.9 53.0 1004.8 6.4 SW 17.7 0.0
16:25 9.7 52.0 1004.7 8.0 SSW 9.7 0.0
16:30 9.4 52.0 1004.5 0.0 S 9.7 0.0
16:35 9.2 53.0 1004.6 0.0 ESE 9.7 0.0
16:40 9.0 53.0 1004.7 8.0 SW 9.7 0.0
16:45 8.8 54.0 1005.0 6.4 WSW 9.7 0.0
16:50 8.6 55.0 1004.7 6.4 WSW 9.7 0.0
16:55 8.5 55.0 1004.9 6.4 SSW 12.9 0.0
17:00 8.3 54.0 1005.0 6.4 SSW 12.9 0.0
17:05 8.2 55.0 1005.0 3.2 SW 9.7 0.0
17:10 8.1 56.0 1004.8 3.2 SW 9.7 0.0
17:15 8.0 56.0 1004.8 4.8 WSW 8.0 0.0
17:20 7.9 56.0 1004.7 6.4 SW 6.4 0.0
17:25 7.8 56.0 1004.9 3.2 WSW 8.0 0.0
17:30 7.7 57.0 1004.8 0.0 SW 8.0 0.0
17:35 7.6 57.0 1005.0 1.6 SW 6.4 0.0
17:40 7.4 58.0 1004.9 1.6 WSW 8.0 0.0
17:45 7.4 58.0 1005.1 3.2 WSW 8.0 0.0
17:50 7.3 58.0 1005.1 3.2 WSW 4.8 0.0
17:55 7.2 58.0 1005.3 1.6 SW 6.4 0.0
18:00 7.2 58.0 1005.5 4.8 SW 6.4 0.0
18:05 7.2 57.0 1005.5 3.2 SW 8.0 0.0
18:10 7.2 57.0 1005.3 4.8 SW 8.0 0.0
18:15 7.2 57.0 1005.3 1.6 SW 8.0 0.0
18:20 7.2 57.0 1005.4 0.0 SSW 8.0 0.0
18:25 7.3 57.0 1005.4 0.0 SW 6.4 0.0
18:30 7.3 58.0 1005.4 0.0 SW 6.4 0.0
18:35 7.2 59.0 1005.4 0.0 SW 0.0 0.0
18:40 7.2 60.0 1005.5 0.0 SW 0.0 0.0
18:45 7.2 59.0 1005.6 0.0 SW 0.0 0.0
18:50 7.1 60.0 1005.6 0.0 SW 0.0 0.0
18:55 6.9 62.0 1005.7 0.0 SW 0.0 0.0
19:00 6.8 61.0 1005.6 0.0 SW 0.0 0.0
19:05 6.7 61.0 1005.6 0.0 SW 0.0 0.0
19:10 6.7 62.0 1005.6 0.0 SW 0.0 0.0
19:15 6.7 63.0 1005.7 0.0 SW 0.0 0.0
19:20 6.6 64.0 1005.6 0.0 SW 0.0 0.0
19:25 6.5 64.0 1005.6 0.0 SW 0.0 0.0
19:30 6.4 64.0 1005.7 0.0 SW 0.0 0.0
19:35 6.4 64.0 1005.7 0.0 SW 0.0 0.0
19:40 6.4 64.0 1005.6 0.0 SW 0.0 0.0
19:45 6.4 63.0 1005.5 0.0 SW 0.0 0.0
19:50 6.4 65.0 1005.6 0.0 SW 0.0 0.0
19:55 6.4 65.0 1005.7 0.0 SW 0.0 0.0
20:00 6.5 65.0 1005.8 0.0 SW 0.0 0.0
20:05 6.4 64.0 1005.7 0.0 SW 0.0 0.0
20:10 6.4 66.0 1005.9 0.0 SW 0.0 0.0
20:15 6.4 66.0 1005.9 0.0 SW 0.0 0.0
20:20 6.2 64.0 1006.0 0.0 SW 0.0 0.0
20:25 6.2 62.0 1006.0 0.0 SW 0.0 0.0
20:30 6.2 64.0 1005.8 0.0 SW 0.0 0.0
20:35 6.1 64.0 1006.0 0.0 SW 0.0 0.0
20:40 6.1 65.0 1006.0 0.0 SW 0.0 0.0
20:45 6.1 65.0 1006.2 0.0 SW 0.0 0.0
20:50 6.1 63.0 1006.1 3.2 SW 4.8 0.0
20:55 6.2 62.0 1006.1 0.0 SW 6.4 0.0
21:00 6.3 63.0 1006.0 0.0 WSW 3.2 0.0
21:05 6.3 64.0 1006.1 0.0 WSW 0.0 0.0
21:10 6.3 64.0 1006.0 6.4 SW 8.0 0.0
21:15 6.3 63.0 1006.0 0.0 W 9.7 0.0
21:20 6.3 65.0 1006.1 1.6 NNW 9.7 0.0
21:25 6.3 64.0 1006.2 3.2 SW 6.4 0.0
21:30 6.3 63.0 1006.1 0.0 WSW 12.9 0.0
21:35 6.3 62.0 1006.1 0.0 W 12.9 0.0
21:40 6.3 61.0 1006.2 3.2 S 8.0 0.0
21:45 6.3 61.0 1006.3 8.0 SSW 9.7 0.0
21:50 6.3 61.0 1006.5 6.4 SSW 9.7 0.0
21:55 6.3 62.0 1006.5 0.0 WSW 9.7 0.0
22:00 6.2 62.0 1006.3 0.0 WSW 9.7 0.0
22:05 6.2 62.0 1006.5 8.0 SW 8.0 0.0
22:10 6.1 62.0 1006.5 0.0 WSW 9.7 0.0
Màxima 11.7 91.0 1006.5 14.5 NE 20.9 0.0
Mínima 1.8 52.0 996.6
Total 0.0